Weather History for Roseau, MN

Change the Weather History Date:

Thursday, January 16, 2014

  Actual Average Record
Temperature  
Mean Temperature 15 °F -  
Max Temperature 35 °F 11 °F 38 °F (1961)
Min Temperature -7 °F -8 °F -39 °F (1954)
Degree Days  
Heating Degree Days 50    
Moisture  
Dew Point -1 °F    
Average Humidity 75    
Maximum Humidity 80    
Minimum Humidity 66    
Precipitation  
Precipitation 0.00 in - - ()
Sea Level Pressure  
Sea Level Pressure 29.71 in    
Wind  
Wind Speed 22 mph (NW)    
Max Wind Speed 33 mph    
Max Gust Speed 39 mph    
Visibility 4 miles    
Events Snow    
Averages and records for this station are not official NWS values.
T = Trace of Precipitation, MM = Missing Value Source: NWS Daily Summary

Daily Weather History Graph

Daily Weather History Graph

Search for Another Location

Airport:

Trip Planner

Search our weather history database for the weather conditions in past years. The results will help you decide how hot, cold, wet, or windy it might be!

Date:

Astronomy

Jan. 16, 2014 Rise Set
Actual Time 8:10 AM CST 4:55 PM CST
Civil Twilight 7:34 AM CST 5:31 PM CST
Nautical Twilight 6:55 AM CST 6:10 PM CST
Astronomical Twilight 6:17 AM CST 6:48 PM CST
Moon 5:57 PM CST (1/16) 7:56 AM CST (1/16)
Length of Visible Light 9h 56m
Length of Day
8h 45m
Full, 100% of the Moon is Illuminated
Jan 16
Full
Jan 23
Last Quarter
Jan 30
New
Feb 6
First Quarter
Feb 14
Full

Hourly Weather History & Observations

Time (CST) Temp. Windchill Dew Point Humidity Pressure Visibility Wind Dir Wind Speed Gust Speed Precip Events Conditions
12:14 AM 35.6 °F 25.5 °F 28.4 °F 75% 29.15 in 10.0 mi WNW 17.3 mph 23.0 mph N/A   Mostly Cloudy
12:34 AM 35.6 °F 23.0 °F 28.4 °F 75% 29.16 in 2.5 mi NW 27.6 mph 32.2 mph N/A Snow Light Snow
12:54 AM 32.0 °F 18.9 °F 26.6 °F 80% 29.18 in 2.0 mi WNW 24.2 mph 32.2 mph N/A Snow Light Snow
1:14 AM 30.2 °F 16.5 °F 24.8 °F 80% 29.20 in 1.5 mi NW 24.2 mph 34.5 mph N/A Snow Light Snow
1:35 AM 28.4 °F 15.4 °F 23.0 °F 80% 29.23 in 1.8 mi WNW 19.6 mph - N/A Snow Light Snow
1:54 AM 24.8 °F 7.9 °F 19.4 °F 80% 29.25 in 1.5 mi NW 29.9 mph 35.7 mph N/A Snow Light Snow
2:14 AM 21.2 °F 4.2 °F 15.8 °F 80% 29.28 in 2.5 mi NNW 25.3 mph 34.5 mph N/A   Haze
2:35 AM 15.8 °F -3.4 °F 10.4 °F 79% 29.32 in 1.2 mi NNW 26.5 mph 36.8 mph N/A Snow Light Snow
2:54 AM 14.0 °F -5.1 °F 8.6 °F 79% 29.34 in 1.8 mi NNW 24.2 mph 38.0 mph N/A Snow Light Snow
3:15 AM 14.0 °F -3.4 °F 6.8 °F 73% 29.37 in 5.0 mi NNW 19.6 mph 28.8 mph N/A   Haze
3:34 AM 12.2 °F -7.5 °F 5.0 °F 73% 29.37 in 3.0 mi NNW 24.2 mph 32.2 mph N/A   Haze
3:55 AM 10.4 °F -12.7 °F 3.2 °F 73% 29.39 in 1.0 mi NW 33.4 mph 39.1 mph N/A Snow Light Snow
4:14 AM 8.6 °F -13.1 °F 1.4 °F 73% 29.41 in 2.0 mi NW 26.5 mph 34.5 mph N/A   Haze
4:35 AM 8.6 °F -9.5 °F 1.4 °F 73% 29.43 in 4.0 mi NW 17.3 mph - N/A Snow Light Snow
4:54 AM 6.8 °F -12.9 °F 1.4 °F 79% 29.44 in 1.0 mi NNW 19.6 mph 26.5 mph N/A Snow Light Snow
5:14 AM 6.8 °F -14.7 °F -0.4 °F 72% 29.45 in 1.0 mi NNW 24.2 mph 29.9 mph N/A Snow Light Snow
5:34 AM 6.8 °F -11.8 °F -0.4 °F 72% 29.46 in 2.5 mi NW 17.3 mph - N/A   Haze
5:55 AM 5.0 °F -18.7 °F -2.2 °F 72% 29.48 in 1.0 mi NW 28.8 mph 39.1 mph N/A Snow Light Snow
6:14 AM 3.2 °F -19.5 °F -2.2 °F 78% 29.50 in 1.2 mi NNW 24.2 mph - N/A Snow Light Snow
6:34 AM 5.0 °F -17.9 °F -2.2 °F 72% 29.51 in 2.0 mi NW 26.5 mph 29.9 mph N/A Snow Light Snow
6:55 AM 3.2 °F -16.5 °F -2.2 °F 78% 29.53 in 2.5 mi NW 17.3 mph 34.5 mph N/A Snow Light Snow
7:14 AM 3.2 °F -20.3 °F -2.2 °F 78% 29.54 in 2.0 mi NW 26.5 mph - N/A   Haze
7:34 AM 3.2 °F -16.5 °F -2.2 °F 78% 29.55 in 2.5 mi NW 17.3 mph 28.8 mph N/A   Haze
7:55 AM 3.2 °F -19.9 °F -2.2 °F 78% 29.57 in 2.0 mi NW 25.3 mph 29.9 mph N/A   Haze
8:14 AM 3.2 °F -19.9 °F -2.2 °F 78% 29.58 in 2.5 mi NW 25.3 mph - N/A   Haze
8:34 AM 3.2 °F -19.5 °F -2.2 °F 78% 29.60 in 1.0 mi NW 24.2 mph 31.1 mph N/A Snow Light Snow
8:55 AM 3.2 °F -18.6 °F -2.2 °F 78% 29.61 in 1.2 mi NW 21.9 mph 27.6 mph N/A   Haze
9:14 AM 3.2 °F -19.0 °F -2.2 °F 78% 29.62 in 1.5 mi NW 23.0 mph 31.1 mph N/A   Haze
9:34 AM 3.2 °F -19.0 °F -2.2 °F 78% 29.64 in 1.0 mi NNW 23.0 mph 31.1 mph N/A Snow Light Snow
9:55 AM 3.2 °F -20.3 °F -2.2 °F 78% 29.66 in 0.8 mi NNW 26.5 mph 32.2 mph N/A Snow Light Snow
10:14 AM 3.2 °F -19.9 °F -2.2 °F 78% 29.67 in 0.5 mi NW 25.3 mph 28.8 mph N/A Snow Light Snow
10:34 AM 3.2 °F -19.0 °F -2.2 °F 78% 29.69 in 0.8 mi NW 23.0 mph 31.1 mph N/A Snow Light Snow
10:55 AM 3.2 °F -20.7 °F -2.2 °F 78% 29.70 in 0.5 mi NNW 27.6 mph 32.2 mph N/A Snow Light Snow
11:14 AM 3.2 °F -19.5 °F -2.2 °F 78% 29.72 in 0.2 mi NNW 24.2 mph 33.4 mph N/A Snow Snow
11:34 AM 3.2 °F -17.6 °F -2.2 °F 78% 29.73 in 0.2 mi NNW 19.6 mph 31.1 mph N/A Snow Snow
11:55 AM 3.2 °F -18.6 °F -2.2 °F 78% 29.74 in 0.2 mi NNW 21.9 mph 28.8 mph N/A Snow Heavy Snow
12:14 PM 3.2 °F -19.9 °F -2.2 °F 78% 29.74 in 0.2 mi NNW 25.3 mph 29.9 mph N/A Snow Light Snow
12:34 PM 5.0 °F -16.7 °F -0.4 °F 78% 29.75 in 0.2 mi NNW 23.0 mph 32.2 mph N/A Snow Snow
12:54 PM 5.0 °F -17.5 °F -0.4 °F 78% 29.76 in 0.2 mi NNW 25.3 mph 29.9 mph N/A Snow Light Snow
1:15 PM 5.0 °F -18.7 °F -0.4 °F 78% 29.77 in 0.2 mi NNW 28.8 mph 33.4 mph N/A Snow Snow
1:34 PM 5.0 °F -16.7 °F -0.4 °F 78% 29.78 in 0.5 mi NNW 23.0 mph 31.1 mph N/A Snow Light Snow
1:54 PM 6.8 °F -14.3 °F -0.4 °F 72% 29.79 in 1.2 mi NNW 23.0 mph - N/A   Haze
2:15 PM 6.8 °F -15.1 °F -0.4 °F 72% 29.80 in 1.0 mi NNW 25.3 mph - N/A   Haze
2:34 PM 6.8 °F -12.4 °F -0.4 °F 72% 29.82 in 3.0 mi NNW 18.4 mph - N/A   Haze
2:54 PM 6.8 °F -15.9 °F -0.4 °F 72% 29.84 in 1.5 mi NNW 27.6 mph 32.2 mph N/A   Haze
3:14 PM 6.8 °F -13.8 °F -0.4 °F 72% 29.86 in 1.5 mi NNW 21.9 mph 25.3 mph N/A Snow Light Snow
3:34 PM 6.8 °F -13.4 °F -0.4 °F 72% 29.88 in 3.0 mi NNW 20.7 mph 24.2 mph N/A   Haze
3:54 PM 6.8 °F -13.8 °F -2.2 °F 67% 29.89 in 5.0 mi NNW 21.9 mph 28.8 mph N/A   Haze
4:14 PM 5.0 °F -15.7 °F -2.2 °F 72% 29.90 in 3.0 mi NNW 20.7 mph - N/A   Haze
4:34 PM 5.0 °F -14.2 °F -2.2 °F 72% 29.92 in 7.0 mi NNW 17.3 mph 26.5 mph N/A   Clear
4:55 PM 3.2 °F -18.1 °F -4.0 °F 72% 29.93 in 2.5 mi NW 20.7 mph - N/A   Haze
5:14 PM 3.2 °F -18.1 °F -4.0 °F 72% 29.95 in 4.0 mi NW 20.7 mph - N/A   Haze
5:34 PM 1.4 °F -19.9 °F -5.8 °F 72% 29.97 in 3.0 mi NW 19.6 mph - N/A   Haze
5:55 PM 1.4 °F -19.9 °F -5.8 °F 72% 29.98 in 7.0 mi NW 19.6 mph 23.0 mph N/A   Clear
6:14 PM 1.4 °F -18.8 °F -7.6 °F 66% 29.99 in 7.0 mi NNW 17.3 mph - N/A   Clear
6:35 PM -0.4 °F -19.9 °F -7.6 °F 72% 30.00 in 10.0 mi NW 15.0 mph - N/A   Clear
6:54 PM -0.4 °F -19.9 °F -7.6 °F 72% 30.00 in 10.0 mi NNW 15.0 mph 19.6 mph N/A   Clear
7:14 PM -0.4 °F -19.2 °F -7.6 °F 72% 30.02 in 10.0 mi NW 13.8 mph - N/A   Clear
7:35 PM -2.2 °F -21.5 °F -7.6 °F 78% 30.03 in 10.0 mi NW 13.8 mph - N/A   Clear
7:54 PM -2.2 °F -20.7 °F -9.4 °F 71% 30.04 in 10.0 mi NW 12.7 mph - N/A   Clear
8:14 PM -2.2 °F -22.2 °F -9.4 °F 71% 30.04 in 10.0 mi NW 15.0 mph - N/A   Clear
8:35 PM -2.2 °F -23.5 °F -7.6 °F 78% 30.05 in 10.0 mi NNW 17.3 mph - N/A   Clear
8:54 PM -2.2 °F -23.5 °F -9.4 °F 71% 30.06 in 10.0 mi NNW 17.3 mph - N/A   Clear
9:14 PM -2.2 °F -23.5 °F -9.4 °F 71% 30.06 in 10.0 mi NNW 17.3 mph - N/A   Clear
9:35 PM -2.2 °F -23.5 °F -9.4 °F 71% 30.06 in 10.0 mi NNW 17.3 mph - N/A   Clear
9:54 PM -2.2 °F -22.2 °F -9.4 °F 71% 30.06 in 10.0 mi NNW 15.0 mph - N/A   Clear
10:14 PM -2.2 °F -20.7 °F -9.4 °F 71% 30.07 in 10.0 mi NNW 12.7 mph - N/A   Clear
10:35 PM -4.0 °F -19.0 °F -9.4 °F 78% 30.08 in 10.0 mi NNW 8.1 mph - N/A   Clear
10:54 PM -4.0 °F -20.2 °F -11.2 °F 71% 30.08 in 10.0 mi NNW 9.2 mph - N/A   Clear
11:14 PM -5.8 °F -22.4 °F -11.2 °F 77% 30.08 in 10.0 mi NNW 9.2 mph - N/A   Clear
11:35 PM -5.8 °F -23.4 °F -11.2 °F 77% 30.08 in 10.0 mi NNW 10.4 mph - N/A   Clear
11:54 PM -7.6 °F -22.1 °F -13.0 °F 77% 30.08 in 10.0 mi NW 6.9 mph - N/A   Clear